Regional Weather Roundup
Issued by NWS

Home | Current Version | Previous Version | Text Only | Print | Product List | Glossary On
Versions: 1 2 3 4 5 6 7 8 9 10 11 12 13 14 15 16 17 18 19 20 21 22 23 24 25 26 27 28 29 30 31 32 33 34 35 36 37 38 39 40 41 42 43 44 45 46 47 48 49 50
000
ASUS43 KDTX 290601
RWRMI
MICHIGAN HOURLY REGIONAL WEATHER ROUNDUP
NATIONAL WEATHER SERVICE DETROIT/PONTIAC MI
200 AM EDT WED JUL 29 2015

NOTE: "FAIR" INDICATES FEW OR NO CLOUDS BELOW 12,000 FEET WITH NO
SIGNIFICANT WEATHER AND/OR OBSTRUCTION TO VISIBILITY.

MIZ047>049-052>055-059>063-066>070-074>076-081>083-290700-
SOUTHEAST LOWER MICHIGAN

CITY           SKY/WX    TMP DP  RH WIND       PRES   REMARKS
ADRIAN         CLEAR     67  64  90 N3        30.01S
6HR MIN TEMP:  66; 6HR MAX TEMP:  82;

ALMA           PTCLDY    65  64  96 CALM      29.99S
ANN ARBOR      CLEAR     62  60  93 CALM      30.00F FOG
BAD AXE        PTCLDY    67  63  84 CALM      30.00S
6HR MIN TEMP:  65; 6HR MAX TEMP:  80;

CARO           PTCLDY    65  64  96 CALM      30.00R
DETROIT CITY   CLEAR     73  62  68 CALM      30.01S
6HR MIN TEMP:  73; 6HR MAX TEMP:  84;

DETROIT        MOCLDY    73  67  81 CALM      30.01S
6HR MIN TEMP:  73; 6HR MAX TEMP:  83;

FLINT          CLEAR     73  63  70 S3        30.00S
6HR MIN TEMP:  69; 6HR MAX TEMP:  87;

GROSSE ILE     CLEAR     72  68  88 CALM      29.99S
HILLSDALE      CLEAR     71  65  80 S3        30.02S
HOWELL         CLEAR     67  62  83 S5        30.01S

CITY           SKY/WX    TMP DP  RH WIND       PRES   REMARKS
JACKSON        CLEAR     71  63  75 S5        30.01S
6HR MIN TEMP:  67; 6HR MAX TEMP:  84;

LAMBERTVILLE   PTCLDY    69  65  89 CALM      30.00S
6HR MIN TEMP:  69; 6HR MAX TEMP:  82;

LANSING        MOCLDY    74  61  63 CALM      30.01R
6HR MIN TEMP:  71; 6HR MAX TEMP:  83;

LAPEER         FAIR      63  63  99 CALM      30.01S
MASON          CLEAR     67  61  80 CALM      30.01R
MONROE         PTCLDY    67  65  95 CALM      29.99S
PONTIAC        CLEAR     69  63  81 CALM      30.01S
6HR MIN TEMP:  68; 6HR MAX TEMP:  87;

PORT HOPE        N/A     70  63  78 CALM      29.97F
6HR MIN TEMP:  69; 6HR MAX TEMP:  78;

PORT HURON     CLEAR     63  63 100 CALM      30.00F
TRI CITIES     CLEAR     74  66  76 S5        29.99S
6HR MIN TEMP:  74; 6HR MAX TEMP:  87;

MIDLAND        FAIR      67  66  94 CALM      29.98S
TROY           CLEAR     74  62  65 CALM      30.03S
SAGINAW HB     CLEAR     70  64  83 S3        29.98F
$$
MIZ043>046-050>051-056>058-064>065-071>073-077>080-290700-
SOUTHWEST LOWER MICHIGAN

CITY           SKY/WX    TMP DP  RH WIND       PRES   REMARKS
BATTLE CREEK   PTCLDY    76  64  66 S6        30.01R
6HR MIN TEMP:  76; 6HR MAX TEMP:  85;

BENTON HARBOR  PTCLDY    76  69  79 SE6       29.96S
6HR MIN TEMP:  74; 6HR MAX TEMP:  86;

BIG RAPIDS     PTCLDY    67  63  89 CALM      29.98S
6HR MIN TEMP:  67; 6HR MAX TEMP:  84;

COLDWATER      CLEAR     72  63  72 SE7       30.00F
6HR MIN TEMP:  69; 6HR MAX TEMP:  80;

FREMONT        FAIR      73  66  80 CALM      29.96F
6HR MIN TEMP:  73; 6HR MAX TEMP:  82;

HOLLAND        CLOUDY    77  67  71 SE8       29.96F
6HR MIN TEMP:  75; 6HR MAX TEMP:  85;

GRAND RAPIDS   PTCLDY    74  66  76 S6        29.98S
6HR MIN TEMP:  73; 6HR MAX TEMP:  84;

IONIA          FAIR      70  64  80 SE6       29.99S
KALAMAZOO      PTCLDY    76  65  68 S5        30.00R
6HR MIN TEMP:  73; 6HR MAX TEMP:  85;

MARSHALL       CLEAR     73  64  73 S3        30.00R
MOUNT PLEASANT CLEAR     71  65  83 CALM      29.98S
6HR MIN TEMP:  67; 6HR MAX TEMP:  81;

MUSKEGON       MOCLDY    80  64  58 SE7       29.95F
6HR MIN TEMP:  78; 6HR MAX TEMP:  86;

SOUTH HAVEN    MOCLDY    77  68  72 SE3       29.96F
$$
MIZ016>042-290700-
NORTHERN LOWER MICHIGAN

CITY           SKY/WX    TMP DP  RH WIND       PRES   REMARKS
ALPENA         CLOUDY    75  63  66 SW5       29.97S
6HR MIN TEMP:  73; 6HR MAX TEMP:  82;

BEAVER ISLAND  MOCLDY    65  62  89 CALM      29.93S
6HR MIN TEMP:  65; 6HR MAX TEMP:  76;

BELLAIRE       PTCLDY    68  65  91 CALM      29.95S
6HR MIN TEMP:  67; 6HR MAX TEMP:  84;

CADILLAC       PTCLDY    75  62  64 S5        29.99S
CHARLEVOIX     PTCLDY    71  65  81 SE3       29.97S
6HR MIN TEMP:  70; 6HR MAX TEMP:  80;

FRANKFORT      PTCLDY    69  63  82 CALM      29.93S
GAYLORD        PTCLDY    75  64  68 S10       29.99R
6HR MIN TEMP:  74; 6HR MAX TEMP:  84;

GRAYLING       CLEAR     68  63  83 CALM      30.00S
6HR MIN TEMP:  66; 6HR MAX TEMP:  83;

HARBOR SPRINGS PTCLDY    75  63  66 CALM      29.94S
HOUGHTON LAKE  CLEAR     71  65  81 SE6       30.00R
6HR MIN TEMP:  67; 6HR MAX TEMP:  81;

MANISTEE       PTCLDY    68  61  77 CALM      29.94F
OSCODA         MOCLDY    73  67  79 CALM      29.97S
PELLSTON       MOCLDY    71  65  81 SE3       29.95R
6HR MIN TEMP:  67; 6HR MAX TEMP:  82;

ROGERS CITY    MOCLDY    76  66  71 S7        29.97R
TRAVERSE CITY  PTCLDY    73  62  68 CALM      29.93S
6HR MIN TEMP:  71; 6HR MAX TEMP:  81;

$$
MIZ007>008-015-290700-
EASTERN UPPER MICHIGAN

CITY           SKY/WX    TMP DP  RH WIND       PRES   REMARKS
KINROSS        PTCLDY    72  64  78 CALM      29.94R
6HR MIN TEMP:  70; 6HR MAX TEMP:  82;

MACKINAC ISLAN MOCLDY    75  65  69 S5        29.93S
MUNISING         N/A     71  62  73 S5        29.87F
6HR MIN TEMP:  71; 6HR MAX TEMP:  83;

$$
MIZ004>006-011>014-085-290700-
CENTRAL UPPER MICHIGAN

CITY           SKY/WX    TMP DP  RH WIND       PRES   REMARKS
MANISTIQUE     PTCLDY    70  63  78 S7        29.90F
ESCANABA       MOCLDY    70  66  88 S5        29.88S
6HR MIN TEMP:  70; 6HR MAX TEMP:  77;

MENOMINEE      MOCLDY    73  64  73 SW7       29.87F
6HR MIN TEMP:  73; 6HR MAX TEMP:  79;

SAWYER-GWINN   PTCLDY    68  62  80 S10       29.88F
6HR MIN TEMP:  67; 6HR MAX TEMP:  81;

$$
MIZ001>003-009>011-084-290700-
WESTERN UPPER MICHIGAN

CITY           SKY/WX    TMP DP  RH WIND       PRES   REMARKS
IRON MOUNTAIN  MOCLDY    72  65  78 S7        29.87F
6HR MIN TEMP:  68; 6HR MAX TEMP:  81;

HOUGHTON       PTCLDY    74  66  76 S10       29.79F
6HR MIN TEMP:  74; 6HR MAX TEMP:  82;

COPPER HARBOR    N/A     74  63  68 SW10G21   29.76F
6HR MIN TEMP:  73; 6HR MAX TEMP:  79;

IRONWOOD       CLOUDY    77  70  78 SW21G28   29.79S
6HR MIN TEMP:  75; 6HR MAX TEMP:  82;

$$

ABBREVIATIONS USED IN REMARKS
   TC - TEMPERATURE IN CELSIUS
  WCI - WIND CHILL INDEX
   HX - HEAT INDEX
  VSB - VISIBILITY



USA.gov is the U.S. government's official web portal to all federal, state and local government web resources and services.